This demonstration page uses our WeatherBlox Daily Observations layout. Learn more.

Left ArrowRight Arrow

Hourly Observations for December 6, 2021

Temp ( °F °C ) Dew Point ( °F °C ) Humidity (%) Winds ( mph kmh ) Pressure ( in mb ) Visibility ( mi km ) Precip ( " mm )
12:15 am 00:15 Cloudy 57 14 57 14 100 100 S 7 11 29.63 1003 10 16 N/A
12:35 am 00:35 Cloudy 59 15 59 15 100 100 NNW 5 7 29.63 1004 10 16 N/A
12:55 am 00:55 Cloudy 57 14 57 14 100 100 WNW 6 9 29.63 1003 10 16 N/A
1:15 am 01:15 Cloudy 55 13 55 13 100 100 W 12 19 29.65 1004 2 2 N/A
1:35 am 01:35 Cloudy 55 13 55 13 100 100 W 7 11 29.64 1004 5 8 N/A
1:55 am 01:55 Cloudy 55 13 55 13 100 100 WSW 7 11 29.64 1004 7 11 N/A
2:15 am 02:15 Cloudy 55 13 55 13 100 100 W 12 19 29.64 1004 5 8 N/A
2:35 am 02:35 Cloudy 54 12 54 12 100 100 NW 21 33 29.66 1005 5 8 N/A
2:55 am 02:55 Cloudy 50 10 50 10 100 100 NW 12 19 29.69 1005 7 11 N/A
3:15 am 03:15 Cloudy 48 9 48 9 100 100 NW 7 11 29.69 1006 7 11 N/A
3:35 am 03:35 Cloudy 48 9 48 9 100 100 NW 9 15 29.71 1006 7 11 N/A
3:55 am 03:55 Cloudy 46 8 46 8 100 100 W 10 17 29.73 1007 10 16 N/A
4:15 am 04:15 Cloudy 46 8 46 8 100 100 WNW 13 20 29.74 1007 10 16 N/A
4:35 am 04:35 Cloudy 45 7 45 7 100 100 WNW 14 22 29.75 1007 10 16 N/A
4:55 am 04:55 Cloudy 43 6 43 6 100 100 WNW 23 37 29.76 1008 10 16 N/A
5:15 am 05:15 Cloudy 41 5 41 5 100 100 WNW 20 31 29.79 1009 10 16 N/A
5:35 am 05:35 Mostly Cloudy 41 5 39 4 93 93 WNW 21 33 29.80 1009 10 16 N/A
5:55 am 05:55 Partly Cloudy 39 4 37 3 93 93 WNW 16 26 29.80 1009 10 16 N/A
6:15 am 06:15 Partly Cloudy 39 4 37 3 93 93 WNW 20 31 29.82 1010 10 16 N/A
6:35 am 06:35 Mostly Cloudy 39 4 34 1 81 81 WNW 24 39 29.84 1011 10 16 N/A
6:55 am 06:55 Cloudy 37 3 32 0 81 81 WNW 23 37 29.85 1011 10 16 N/A
7:15 am 07:15 Cloudy 37 3 32 0 81 81 W 18 30 29.86 1011 10 16 N/A
7:35 am 07:35 Cloudy 36 2 32 0 87 87 WNW 17 28 29.88 1012 10 16 N/A
7:55 am 07:55 Mostly Cloudy 34 1 30 -1 87 87 WNW 21 33 29.90 1013 10 16 N/A
8:15 am 08:15 Cloudy 34 1 28 -2 81 81 W 23 37 29.91 1013 10 16 N/A
8:35 am 08:35 Partly Cloudy 32 0 25 -4 75 75 W 24 39 29.93 1013 10 16 N/A
8:55 am 08:55 Mostly Cloudy 32 0 27 -3 80 80 W 29 46 29.96 1014 10 16 N/A
9:15 am 09:15 Cloudy 32 0 25 -4 75 75 W 29 46 29.97 1015 10 16 N/A
9:35 am 09:35 Cloudy 32 0 25 -4 75 75 WNW 24 39 29.99 1015 10 16 N/A
9:55 am 09:55 Cloudy 32 0 25 -4 75 75 W 20 31 30.01 1016 10 16 N/A
10:15 am 10:15 Cloudy 32 0 25 -4 75 75 W 20 31 30.03 1017 10 16 N/A
10:35 am 10:35 Cloudy 32 0 25 -4 75 75 W 23 37 30.04 1017 10 16 N/A
10:55 am 10:55 Cloudy 32 0 23 -5 69 69 WNW 18 30 30.05 1017 10 16 N/A
11:15 am 11:15 Cloudy 32 0 25 -4 75 75 W 23 37 30.06 1018 10 16 N/A
11:35 am 11:35 Cloudy 32 0 21 -6 64 64 WNW 22 35 30.07 1018 10 16 N/A
11:55 am 11:55 Cloudy 32 0 23 -5 69 69 W 24 39 30.07 1018 10 16 N/A
12:15 pm 12:15 Cloudy 32 0 23 -5 69 69 W 26 43 30.07 1018 10 16 N/A
12:35 pm 12:35 Cloudy 34 1 23 -5 65 65 W 22 35 30.06 1018 10 16 N/A
12:55 pm 12:55 Partly Cloudy 34 1 23 -5 65 65 W 25 41 30.06 1018 10 16 N/A
1:15 pm 13:15 Partly Cloudy 32 0 23 -5 69 69 W 24 39 30.09 1019 10 16 N/A
1:35 pm 13:35 Mostly Cloudy 32 0 23 -5 69 69 W 20 31 30.09 1019 10 16 N/A
1:55 pm 13:55 Mostly Cloudy 36 2 23 -5 60 60 W 23 37 30.08 1019 10 16 N/A
2:15 pm 14:15 Partly Cloudy 36 2 23 -5 60 60 W 20 31 30.08 1019 10 16 N/A
2:35 pm 14:35 Partly Cloudy 36 2 23 -5 60 60 W 20 31 30.09 1019 10 16 N/A
2:55 pm 14:55 Sunny 36 2 23 -5 60 60 W 23 37 30.09 1019 10 16 N/A
3:15 pm 15:15 Sunny 36 2 23 -5 60 60 W 18 30 30.11 1020 10 16 N/A
3:35 pm 15:35 Sunny 34 1 21 -6 60 60 W 23 37 30.11 1020 10 16 N/A
3:55 pm 15:55 Sunny 34 1 23 -5 65 65 W 24 39 30.13 1020 10 16 N/A
4:15 pm 16:15 Partly Cloudy 34 1 21 -6 60 60 W 25 41 30.14 1021 10 16 N/A
4:35 pm 16:35 Partly Cloudy 34 1 21 -6 60 60 W 14 22 30.15 1021 10 16 N/A
4:55 pm 16:55 Mostly Cloudy 32 0 21 -6 64 64 W 13 20 30.18 1022 10 16 N/A
5:15 pm 17:15 Partly Cloudy 32 0 19 -7 60 60 W 20 31 30.18 1022 10 16 N/A
5:35 pm 17:35 Clear 32 0 19 -7 60 60 W 20 31 30.19 1022 10 16 N/A
5:55 pm 17:55 Partly Cloudy 32 0 19 -7 60 60 W 17 28 30.20 1023 10 16 N/A
6:15 pm 18:15 Mostly Cloudy 32 0 19 -7 60 60 W 20 31 30.21 1023 10 16 N/A
6:35 pm 18:35 Partly Cloudy 30 -1 18 -8 59 59 W 17 28 30.22 1023 10 16 N/A
6:55 pm 18:55 Mostly Cloudy 30 -1 18 -8 59 59 WNW 17 28 30.22 1023 10 16 N/A
7:15 pm 19:15 Partly Cloudy 28 -2 16 -9 59 59 WNW 21 33 30.23 1024 10 16 N/A
7:35 pm 19:35 Clear 28 -2 12 -11 51 51 W 22 35 30.25 1024 10 16 N/A
7:55 pm 19:55 Clear 27 -3 12 -11 54 54 W 22 35 30.26 1025 10 16 N/A
8:15 pm 20:15 Clear 27 -3 10 -12 50 50 W 18 30 30.27 1025 10 16 N/A
8:35 pm 20:35 Clear 25 -4 9 -13 50 50 W 17 28 30.28 1025 10 16 N/A
8:55 pm 20:55 Clear 25 -4 9 -13 50 50 W 16 26 30.29 1026 10 16 N/A
9:15 pm 21:15 Clear 25 -4 7 -14 46 46 W 13 20 30.30 1026 10 16 N/A
9:35 pm 21:35 Clear 25 -4 9 -13 50 50 W 13 20 30.31 1026 10 16 N/A
9:55 pm 21:55 Clear 25 -4 9 -13 50 50 W 10 17 30.31 1026 10 16 N/A
10:15 pm 22:15 Clear 23 -5 9 -13 54 54 W 7 11 30.30 1026 10 16 N/A
10:35 pm 22:35 Clear 23 -5 9 -13 54 54 WNW 12 19 30.28 1026 10 16 N/A
10:55 pm 22:55 Clear 23 -5 9 -13 54 54 W 7 11 30.29 1026 10 16 N/A
11:15 pm 23:15 Clear 25 -4 9 -13 50 50 WNW 14 22 30.28 1025 10 16 N/A
11:35 pm 23:35 Clear 23 -5 7 -14 50 50 WNW 21 33 30.29 1026 10 16 N/A
11:55 pm 23:55 Clear 23 -5 9 -13 54 54 WNW 13 20 30.30 1026 10 16 N/A

Powered by AerisWeather